TimeCDT,TemperatureF,Dew PointF,Humidity,Sea Level PressureIn,VisibilityMPH,Wind Direction,Wind SpeedMPH,Gust SpeedMPH,PrecipitationIn,Events,Conditions,WindDirDegrees,DateUTC
12:53 AM,46.9,39.9,77,29.94,10.0,West,6.9,-,N/A,,Mostly Cloudy,280,2013-10-07 05:53:00
1:53 AM,42.1,37.9,85,29.95,10.0,West,5.8,-,N/A,,Clear,260,2013-10-07 06:53:00
2:53 AM,42.1,37.0,82,29.94,10.0,Calm,Calm,-,N/A,,Clear,0,2013-10-07 07:53:00
3:53 AM,39.9,37.9,93,29.94,10.0,WSW,3.5,-,N/A,,Clear,240,2013-10-07 08:53:00
4:53 AM,45.0,39.9,82,29.94,10.0,West,4.6,-,N/A,,Clear,280,2013-10-07 09:53:00
5:53 AM,43.0,39.9,89,29.95,10.0,WNW,3.5,-,N/A,,Clear,300,2013-10-07 10:53:00
6:53 AM,39.9,37.9,93,29.96,10.0,Calm,Calm,-,N/A,,Clear,0,2013-10-07 11:53:00
7:53 AM,39.0,39.0,100,29.98,10.0,Calm,Calm,-,N/A,,Clear,0,2013-10-07 12:53:00
8:53 AM,45.0,42.1,90,29.98,10.0,Calm,Calm,-,N/A,,Clear,0,2013-10-07 13:53:00
9:53 AM,48.0,43.0,83,29.99,10.0,Calm,Calm,-,N/A,,Clear,0,2013-10-07 14:53:00
10:53 AM,52.0,46.0,80,29.99,10.0,SE,3.5,-,N/A,,Clear,140,2013-10-07 15:53:00
11:53 AM,57.9,45.0,62,30.00,10.0,Calm,Calm,-,N/A,,Clear,0,2013-10-07 16:53:00
12:53 PM,63.0,41.0,45,29.98,10.0,Calm,Calm,-,N/A,,Clear,0,2013-10-07 17:53:00
1:53 PM,64.9,39.0,39,29.96,10.0,Variable,3.5,-,N/A,,Clear,0,2013-10-07 18:53:00
2:53 PM,66.9,43.0,42,29.94,10.0,South,4.6,-,N/A,,Clear,190,2013-10-07 19:53:00
3:53 PM,68.0,42.1,39,29.94,10.0,South,6.9,-,N/A,,Clear,180,2013-10-07 20:53:00
4:53 PM,68.0,43.0,40,29.91,10.0,SSW,6.9,-,N/A,,Clear,200,2013-10-07 21:53:00
5:53 PM,66.9,46.0,47,29.91,10.0,South,5.8,-,N/A,,Clear,180,2013-10-07 22:53:00
6:53 PM,61.0,46.0,58,29.91,7.0,South,6.9,-,N/A,,Clear,180,2013-10-07 23:53:00
7:53 PM,57.0,46.0,67,29.92,10.0,South,3.5,-,N/A,,Clear,180,2013-10-08 00:53:00
8:53 PM,54.0,45.0,72,29.91,10.0,Calm,Calm,-,N/A,,Clear,0,2013-10-08 01:53:00
9:53 PM,52.0,45.0,77,29.89,10.0,SSE,8.1,-,N/A,,Clear,150,2013-10-08 02:53:00
10:53 PM,50.0,44.1,80,29.89,10.0,SSE,5.8,-,N/A,,Clear,160,2013-10-08 03:53:00
11:53 PM,50.0,44.1,80,29.86,10.0,SSE,8.1,-,N/A,,Clear,160,2013-10-08 04:53:00